| time (UTC) | temp F | wind direction | speed MPH | gust MPH | rain 1hr in | rain 24hr in | rain mn in | humidity % | barometer mb |
| 20260507145636 | 57 | 141 | 5.0 | 9.0 | 0.00 | 0.00 | 0.00 | 59 | 1013.5 |
| 20260507145137 | 56 | 176 | 4.0 | 9.0 | 0.00 | 0.00 | 0.00 | 59 | 1013.9 |
| 20260507144636 | 55 | 214 | 3.0 | 7.0 | 0.00 | 0.00 | 0.00 | 62 | 1013.9 |
| 20260507144137 | 55 | 71 | 3.0 | 10.0 | 0.00 | 0.00 | 0.00 | 63 | 1013.9 |
| 20260507143634 | 54 | 227 | 4.0 | 7.0 | 0.00 | 0.00 | 0.00 | 62 | 1013.9 |
| 20260507143136 | 53 | 210 | 4.0 | 7.0 | 0.00 | 0.00 | 0.00 | 63 | 1013.9 |
| 20260507142637 | 53 | 233 | 3.0 | 8.0 | 0.00 | 0.00 | 0.00 | 66 | 1013.9 |
| 20260507142136 | 52 | 296 | 4.0 | 8.0 | 0.00 | 0.00 | 0.00 | 65 | 1013.9 |
| 20260507141634 | 51 | 313 | 4.0 | 6.0 | 0.00 | 0.00 | 0.00 | 66 | 1013.9 |
| 20260507141135 | 51 | 180 | 4.0 | 8.0 | 0.00 | 0.00 | 0.00 | 68 | 1013.9 |
| 20260507140635 | 50 | 183 | 2.0 | 9.0 | 0.00 | 0.00 | 0.00 | 70 | 1013.9 |
| 20260507140135 | 49 | 141 | 3.0 | 7.0 | 0.00 | 0.00 | 0.00 | 71 | 1014.2 |
| 20260507135638 | 49 | 170 | 4.0 | 7.0 | 0.00 | 0.00 | 0.00 | 71 | 1013.9 |
| 20260507135138 | 48 | 151 | 2.0 | 8.0 | 0.00 | 0.00 | 0.00 | 73 | 1014.2 |
| 20260507134633 | 48 | 201 | 4.0 | 6.0 | 0.00 | 0.00 | 0.00 | 74 | 1014.2 |
| 20260507134133 | 47 | 273 | 3.0 | 5.0 | 0.00 | 0.00 | 0.00 | 74 | 1014.2 |
| 20260507133637 | 46 | 94 | 3.0 | 7.0 | 0.00 | 0.00 | 0.00 | 76 | 1013.9 |
| 20260507133139 | 46 | 172 | 4.0 | 7.0 | 0.00 | 0.00 | 0.00 | 77 | 1014.2 |
| 20260507132636 | 45 | 193 | 3.0 | 5.0 | 0.00 | 0.00 | 0.00 | 79 | 1014.2 |
| 20260507132136 | 44 | 211 | 3.0 | 6.0 | 0.00 | 0.00 | 0.00 | 81 | 1014.2 |
| 20260507131636 | 43 | 185 | 3.0 | 5.0 | 0.00 | 0.00 | 0.00 | 83 | 1014.2 |
| 20260507131137 | 42 | 139 | 3.0 | 6.0 | 0.00 | 0.00 | 0.00 | 84 | 1014.2 |
| 20260507130634 | 42 | 184 | 3.0 | 7.0 | 0.00 | 0.00 | 0.00 | 86 | 1014.6 |
| 20260507130137 | 41 | 147 | 5.0 | 11.0 | 0.00 | 0.00 | 0.00 | 88 | 1014.2 |
| 20260507125637 | 40 | 228 | 6.0 | 11.0 | 0.00 | 0.00 | 0.00 | 89 | 1014.2 |
| 20260507125137 | 39 | 254 | 5.0 | 10.0 | 0.00 | 0.00 | 0.00 | 90 | 1014.6 |
| 20260507124635 | 39 | 123 | 6.0 | 10.0 | 0.00 | 0.00 | 0.00 | 90 | 1014.6 |
| 20260507124135 | 38 | 133 | 7.0 | 10.0 | 0.00 | 0.00 | 0.00 | 91 | 1014.6 |
| 20260507123637 | 38 | 84 | 9.0 | 16.0 | 0.00 | 0.00 | 0.00 | 91 | 1014.6 |
| 20260507123135 | 37 | 166 | 11.0 | 16.0 | 0.00 | 0.00 | 0.00 | 92 | 1014.6 |
| 20260507122636 | 37 | 99 | 9.0 | 12.0 | 0.00 | 0.00 | 0.00 | 93 | 1014.6 |
| 20260507122136 | 37 | 201 | 8.0 | 10.0 | 0.00 | 0.00 | 0.00 | 93 | 1014.6 |
| 20260507121636 | 36 | 135 | 11.0 | 14.0 | 0.00 | 0.00 | 0.00 | 93 | 1014.6 |
| 20260507121133 | 36 | 146 | 10.0 | 16.0 | 0.00 | 0.00 | 0.00 | 93 | 1014.6 |
| 20260507120637 | 36 | 349 | 6.0 | 10.0 | 0.00 | 0.00 | 0.00 | 93 | 1014.6 |
| 20260507120012 | 35 | 167 | 10.0 | 14.0 | 0.00 | 0.00 | 0.00 | 93 | 1014.6 |
| 20260507115316 | 35 | 129 | 7.0 | 11.0 | 0.00 | 0.00 | 0.00 | 93 | 1014.9 |
| 20260507114634 | 36 | 162 | 11.0 | 17.0 | 0.00 | 0.00 | 0.00 | 93 | 1014.9 |
| 20260507114133 | 36 | 238 | 14.0 | 17.0 | 0.00 | 0.00 | 0.00 | 93 | 1014.9 |
| 20260507113633 | 36 | 135 | 12.0 | 14.0 | 0.00 | 0.00 | 0.00 | 94 | 1014.9 |
| 20260507113135 | 35 | 195 | 5.0 | 17.0 | 0.00 | 0.00 | 0.00 | 94 | 1014.9 |
| 20260507112634 | 35 | 183 | 9.0 | 15.0 | 0.00 | 0.00 | 0.00 | 94 | 1014.9 |
| 20260507112134 | 35 | 99 | 7.0 | 13.0 | 0.00 | 0.00 | 0.00 | 94 | 1014.9 |
| 20260507111633 | 35 | 71 | 7.0 | 11.0 | 0.00 | 0.00 | 0.00 | 94 | 1014.9 |
| 20260507111134 | 36 | 136 | 10.0 | 12.0 | 0.00 | 0.00 | 0.00 | 94 | 1015.2 |
| 20260507110633 | 36 | 186 | 8.0 | 10.0 | 0.00 | 0.00 | 0.00 | 94 | 1015.2 |
| 20260507110134 | 36 | 133 | 8.0 | 15.0 | 0.00 | 0.00 | 0.00 | 94 | 1015.2 |
| 20260507105633 | 36 | 132 | 9.0 | 15.0 | 0.00 | 0.00 | 0.00 | 94 | 1015.2 |
| 20260507105133 | 36 | 92 | 7.0 | 8.0 | 0.00 | 0.00 | 0.00 | 94 | 1015.2 |
| 20260507104634 | 36 | 158 | 4.0 | 13.0 | 0.00 | 0.00 | 0.00 | 94 | 1015.2 |
| 20260507104134 | 36 | 247 | 8.0 | 13.0 | 0.00 | 0.00 | 0.00 | 94 | 1015.6 |
| 20260507103633 | 36 | 141 | 7.0 | 13.0 | 0.00 | 0.00 | 0.00 | 94 | 1015.6 |
| 20260507103134 | 36 | 126 | 10.0 | 13.0 | 0.00 | 0.00 | 0.00 | 93 | 1015.6 |
| 20260507102633 | 36 | 178 | 9.0 | 16.0 | 0.00 | 0.00 | 0.00 | 93 | 1015.6 |
| 20260507102136 | 36 | 145 | 7.0 | 16.0 | 0.00 | 0.00 | 0.00 | 93 | 1015.9 |
| 20260507101633 | 36 | 293 | 10.0 | 16.0 | 0.00 | 0.00 | 0.00 | 93 | 1015.9 |
| 20260507101134 | 36 | 169 | 7.0 | 13.0 | 0.00 | 0.00 | 0.00 | 93 | 1015.9 |
| 20260507100635 | 36 | 115 | 10.0 | 10.0 | 0.00 | 0.00 | 0.00 | 93 | 1015.9 |
| 20260507100134 | 36 | 82 | 6.0 | 9.0 | 0.00 | 0.00 | 0.00 | 92 | 1015.9 |
| 20260507095633 | 36 | 127 | 5.0 | 9.0 | 0.00 | 0.00 | 0.00 | 92 | 1016.3 |
| 20260507095134 | 37 | 141 | 4.0 | 12.0 | 0.00 | 0.00 | 0.00 | 92 | 1016.3 |
| 20260507094633 | 37 | 94 | 7.0 | 10.0 | 0.00 | 0.00 | 0.00 | 92 | 1015.9 |
| 20260507094133 | 37 | 335 | 5.0 | 10.0 | 0.00 | 0.00 | 0.00 | 92 | 1015.9 |
| 20260507093635 | 37 | 234 | 5.0 | 9.0 | 0.00 | 0.00 | 0.00 | 92 | 1016.3 |
| 20260507093134 | 37 | 126 | 6.0 | 10.0 | 0.00 | 0.00 | 0.00 | 92 | 1016.3 |
| 20260507092633 | 37 | 149 | 6.0 | 10.0 | 0.00 | 0.00 | 0.00 | 92 | 1015.9 |
| 20260507092135 | 37 | 193 | 5.0 | 10.0 | 0.00 | 0.00 | 0.00 | 92 | 1015.9 |
| 20260507091634 | 37 | 127 | 9.0 | 10.0 | 0.00 | 0.00 | 0.00 | 91 | 1015.9 |
| 20260507091133 | 37 | 35 | 5.0 | 6.0 | 0.00 | 0.00 | 0.00 | 91 | 1016.3 |
| 20260507090634 | 38 | 151 | 5.0 | 6.0 | 0.00 | 0.00 | 0.00 | 91 | 1016.3 |
| 20260507090133 | 38 | 57 | 4.0 | 7.0 | 0.00 | 0.00 | 0.00 | 91 | 1016.6 |
| 20260507085635 | 38 | 113 | 6.0 | 7.0 | 0.00 | 0.00 | 0.00 | 91 | 1016.6 |
| 20260507085133 | 38 | 65 | 4.0 | 8.0 | 0.00 | 0.00 | 0.00 | 91 | 1016.6 |
| 20260507084634 | 38 | 127 | 5.0 | 10.0 | 0.00 | 0.00 | 0.00 | 91 | 1016.6 |
| 20260507084134 | 38 | 72 | 5.0 | 10.0 | 0.00 | 0.00 | 0.00 | 90 | 1016.6 |
| 20260507083635 | 38 | 165 | 7.0 | 10.0 | 0.00 | 0.00 | 0.00 | 91 | 1016.9 |
| 20260507083134 | 38 | 143 | 5.0 | 9.0 | 0.00 | 0.00 | 0.00 | 90 | 1016.9 |
| 20260507082633 | 38 | 296 | 2.0 | 8.0 | 0.00 | 0.00 | 0.00 | 91 | 1016.9 |
| 20260507082133 | 39 | 347 | 3.0 | 8.0 | 0.00 | 0.00 | 0.00 | 91 | 1016.9 |
| 20260507081633 | 38 | 78 | 5.0 | 9.0 | 0.00 | 0.00 | 0.00 | 91 | 1016.9 |
| 20260507081133 | 39 | 215 | 5.0 | 11.0 | 0.00 | 0.00 | 0.00 | 91 | 1016.9 |
| 20260507080635 | 39 | 25 | 7.0 | 10.0 | 0.00 | 0.00 | 0.00 | 91 | 1016.9 |
| 20260507080133 | 38 | 93 | 2.0 | 11.0 | 0.00 | 0.00 | 0.00 | 92 | 1016.9 |
| 20260507075634 | 38 | 169 | 4.0 | 14.0 | 0.00 | 0.00 | 0.00 | 92 | 1016.9 |
| 20260507075134 | 38 | 314 | 7.0 | 14.0 | 0.00 | 0.00 | 0.00 | 92 | 1016.9 |
| 20260507074633 | 38 | 154 | 6.0 | 11.0 | 0.00 | 0.00 | 0.00 | 93 | 1016.9 |
| 20260507074137 | 38 | 176 | 3.0 | 8.0 | 0.00 | 0.00 | 0.00 | 93 | 1017.3 |
| 20260507073633 | 38 | 281 | 3.0 | 8.0 | 0.00 | 0.00 | 0.00 | 93 | 1017.3 |
| 20260507073133 | 38 | 223 | 5.0 | 6.0 | 0.00 | 0.00 | 0.00 | 93 | 1017.6 |
| 20260507072633 | 38 | 160 | 2.0 | 9.0 | 0.00 | 0.00 | 0.00 | 93 | 1017.6 |
| 20260507072133 | 38 | 90 | 2.0 | 6.0 | 0.00 | 0.00 | 0.00 | 92 | 1017.6 |
| 20260507071633 | 38 | 91 | 1.0 | 5.0 | 0.00 | 0.00 | 0.00 | 92 | 1017.9 |
| 20260507071134 | 38 | 244 | 3.0 | 7.0 | 0.00 | 0.00 | 0.00 | 92 | 1017.9 |
| 20260507070635 | 38 | 120 | 3.0 | 7.0 | 0.00 | 0.00 | 0.00 | 93 | 1017.9 |
| 20260507070133 | 39 | 152 | 4.0 | 6.0 | 0.00 | 0.00 | 0.00 | 93 | 1017.9 |
| 20260507065634 | 39 | 157 | 5.0 | 7.0 | 0.00 | 0.00 | 0.00 | 93 | 1017.9 |
| 20260507065136 | 39 | 53 | 4.0 | 7.0 | 0.00 | 0.00 | 0.00 | 93 | 1017.9 |
| 20260507064636 | 39 | 193 | 4.0 | 7.0 | 0.00 | 0.00 | 0.00 | 93 | 1017.9 |
| 20260507064133 | 39 | 183 | 3.0 | 7.0 | 0.00 | 0.00 | 0.00 | 93 | 1018.3 |
| 20260507063633 | 39 | 166 | 2.0 | 7.0 | 0.00 | 0.00 | 0.00 | 93 | 1018.3 |
| 20260507063134 | 39 | 183 | 4.0 | 7.0 | 0.00 | 0.00 | 0.00 | 93 | 1017.9 |
| 20260507062634 | 39 | 98 | 2.0 | 6.0 | 0.00 | 0.00 | 0.00 | 93 | 1018.3 |
| 20260507062133 | 39 | 148 | 4.0 | 6.0 | 0.00 | 0.00 | 0.00 | 93 | 1018.3 |
| 20260507061635 | 39 | 46 | 2.0 | 4.0 | 0.00 | 0.00 | 0.00 | 93 | 1018.3 |
| 20260507061134 | 39 | 173 | 1.0 | 4.0 | 0.00 | 0.00 | 0.00 | 93 | 1018.3 |
| 20260507060633 | 39 | 138 | 2.0 | 7.0 | 0.00 | 0.00 | 0.00 | 93 | 1018.3 |
| 20260507060136 | 39 | 183 | 2.0 | 6.0 | 0.00 | 0.00 | 0.00 | 93 | 1018.3 |
| 20260507055633 | 39 | 152 | 3.0 | 7.0 | 0.00 | 0.00 | 0.00 | 93 | 1018.3 |
| 20260507055133 | 39 | 197 | 2.0 | 4.0 | 0.00 | 0.00 | 0.00 | 93 | 1018.6 |
| 20260507054634 | 39 | 151 | 2.0 | 4.0 | 0.00 | 0.00 | 0.00 | 92 | 1018.6 |
| 20260507054134 | 39 | 77 | 3.0 | 5.0 | 0.00 | 0.00 | 0.00 | 92 | 1018.6 |
| 20260507053634 | 39 | 165 | 3.0 | 4.0 | 0.00 | 0.00 | 0.00 | 92 | 1018.6 |
| 20260507053133 | 40 | 156 | 2.0 | 5.0 | 0.00 | 0.00 | 0.00 | 92 | 1018.6 |
| 20260507052633 | 40 | 148 | 2.0 | 5.0 | 0.00 | 0.00 | 0.00 | 92 | 1018.6 |
| 20260507052133 | 40 | 98 | 1.0 | 4.0 | 0.00 | 0.00 | 0.00 | 92 | 1018.6 |
| 20260507051634 | 40 | 112 | 1.0 | 3.0 | 0.00 | 0.00 | 0.00 | 92 | 1018.6 |
| 20260507051134 | 40 | 162 | 1.0 | 4.0 | 0.00 | 0.00 | 0.00 | 92 | 1018.6 |
| 20260507050633 | 40 | 161 | 2.0 | 5.0 | 0.00 | 0.00 | 0.00 | 92 | 1018.6 |
| 20260507050133 | 40 | 98 | 2.0 | 3.0 | 0.00 | 0.00 | 0.28 | 91 | 1018.6 |
| 20260507045633 | 40 | 172 | 1.0 | 4.0 | 0.00 | 0.00 | 0.28 | 91 | 1018.6 |
| 20260507045133 | 40 | 99 | 2.0 | 4.0 | 0.00 | 0.00 | 0.28 | 91 | 1018.6 |
| 20260507044634 | 40 | 103 | 1.0 | 4.0 | 0.00 | 0.00 | 0.28 | 91 | 1018.6 |
| 20260507044133 | 40 | 208 | 1.0 | 4.0 | 0.00 | 0.00 | 0.28 | 91 | 1018.6 |
| 20260507043634 | 41 | 113 | 1.0 | 4.0 | 0.00 | 0.00 | 0.28 | 90 | 1018.6 |
| 20260507043133 | 41 | 85 | 0.0 | 3.0 | 0.00 | 0.00 | 0.28 | 90 | 1019.0 |
| 20260507042634 | 41 | 104 | 1.0 | 4.0 | 0.00 | 0.00 | 0.28 | 90 | 1019.0 |
| 20260507042135 | 41 | 131 | 1.0 | 3.0 | 0.00 | 0.00 | 0.28 | 90 | 1019.0 |
| 20260507041633 | 41 | 96 | 2.0 | 2.0 | 0.00 | 0.00 | 0.28 | 90 | 1019.0 |
| 20260507041134 | 42 | 129 | 2.0 | 4.0 | 0.00 | 0.00 | 0.28 | 90 | 1019.0 |
| 20260507040635 | 42 | 139 | 1.0 | 6.0 | 0.00 | 0.00 | 0.28 | 90 | 1019.0 |
| 20260507040133 | 42 | 157 | 2.0 | 4.0 | 0.00 | 0.00 | 0.28 | 90 | 1019.0 |
| 20260507035633 | 42 | 151 | 1.0 | 2.0 | 0.00 | 0.00 | 0.28 | 90 | 1019.0 |
| 20260507035136 | 42 | 179 | 0.0 | 5.0 | 0.00 | 0.00 | 0.28 | 90 | 1019.0 |
| 20260507034633 | 42 | 111 | 1.0 | 5.0 | 0.00 | 0.00 | 0.28 | 90 | 1019.0 |
| 20260507034133 | 43 | 100 | 1.0 | 4.0 | 0.00 | 0.00 | 0.28 | 89 | 1019.0 |
| 20260507033634 | 43 | 81 | 2.0 | 4.0 | 0.00 | 0.00 | 0.28 | 89 | 1019.0 |
| 20260507033134 | 43 | 10 | 2.0 | 4.0 | 0.00 | 0.00 | 0.28 | 89 | 1019.0 |
| 20260507032634 | 43 | 344 | 1.0 | 3.0 | 0.00 | 0.00 | 0.28 | 89 | 1019.0 |
| 20260507032133 | 43 | 58 | 1.0 | 3.0 | 0.00 | 0.00 | 0.28 | 89 | 1019.0 |
| 20260507031634 | 43 | 33 | 1.0 | 3.0 | 0.00 | 0.00 | 0.28 | 88 | 1019.0 |
| 20260507031133 | 43 | 85 | 0.0 | 3.0 | 0.00 | 0.00 | 0.28 | 88 | 1019.0 |
| 20260507030633 | 44 | 76 | 0.0 | 2.0 | 0.00 | 0.00 | 0.28 | 87 | 1019.0 |
| 20260507030134 | 44 | 1 | 1.0 | 4.0 | 0.00 | 0.00 | 0.28 | 87 | 1019.0 |
| 20260507025634 | 44 | 125 | 2.0 | 4.0 | 0.00 | 0.00 | 0.28 | 87 | 1018.6 |
| 20260507025135 | 45 | 17 | 1.0 | 3.0 | 0.00 | 0.00 | 0.28 | 86 | 1018.6 |
| 20260507024633 | 45 | 285 | 1.0 | 3.0 | 0.00 | 0.00 | 0.28 | 85 | 1018.6 |
| 20260507024134 | 45 | 108 | 0.0 | 1.0 | 0.00 | 0.00 | 0.28 | 84 | 1018.6 |
| 20260507023634 | 45 | 355 | 1.0 | 3.0 | 0.00 | 0.00 | 0.28 | 84 | 1018.6 |
| 20260507023134 | 45 | 272 | 3.0 | 5.0 | 0.00 | 0.00 | 0.28 | 84 | 1018.6 |
| 20260507022633 | 46 | 81 | 0.0 | 5.0 | 0.00 | 0.00 | 0.28 | 84 | 1018.6 |
| 20260507022134 | 46 | 9 | 1.0 | 3.0 | 0.00 | 0.00 | 0.28 | 84 | 1018.6 |
| 20260507021634 | 46 | 301 | 1.0 | 3.0 | 0.00 | 0.00 | 0.28 | 84 | 1018.6 |
| 20260507021133 | 46 | 184 | 1.0 | 3.0 | 0.00 | 0.00 | 0.28 | 84 | 1018.6 |
| 20260507020633 | 46 | 239 | 0.0 | 3.0 | 0.00 | 0.00 | 0.28 | 83 | 1018.6 |
| 20260507020133 | 46 | 75 | 1.0 | 4.0 | 0.00 | 0.00 | 0.28 | 83 | 1018.6 |
| 20260507015634 | 46 | 89 | 1.0 | 4.0 | 0.00 | 0.00 | 0.28 | 83 | 1018.6 |
| 20260507015134 | 46 | 312 | 1.0 | 3.0 | 0.00 | 0.00 | 0.28 | 82 | 1018.6 |
| 20260507014635 | 47 | 236 | 1.0 | 4.0 | 0.00 | 0.00 | 0.28 | 81 | 1018.3 |
| 20260507014133 | 47 | 127 | 2.0 | 3.0 | 0.00 | 0.00 | 0.28 | 80 | 1018.3 |
| 20260507013634 | 47 | 214 | 2.0 | 4.0 | 0.00 | 0.00 | 0.28 | 79 | 1018.3 |
| 20260507013134 | 47 | 39 | 2.0 | 5.0 | 0.00 | 0.00 | 0.28 | 78 | 1018.3 |
| 20260507012634 | 47 | 326 | 2.0 | 5.0 | 0.00 | 0.00 | 0.28 | 79 | 1018.3 |
| 20260507012133 | 48 | 205 | 2.0 | 4.0 | 0.00 | 0.00 | 0.28 | 78 | 1018.3 |
| 20260507011635 | 48 | 358 | 2.0 | 6.0 | 0.00 | 0.00 | 0.28 | 77 | 1017.9 |
| 20260507011135 | 49 | 32 | 1.0 | 3.0 | 0.00 | 0.00 | 0.28 | 76 | 1018.3 |
| 20260507010633 | 49 | 61 | 1.0 | 3.0 | 0.00 | 0.00 | 0.28 | 76 | 1018.3 |
| 20260507010133 | 49 | 84 | 1.0 | 6.0 | 0.00 | 0.00 | 0.28 | 74 | 1018.3 |
| 20260507005634 | 49 | 75 | 3.0 | 5.0 | 0.00 | 0.00 | 0.28 | 72 | 1018.3 |
| 20260507005133 | 50 | 284 | 3.0 | 8.0 | 0.00 | 0.00 | 0.28 | 72 | 1018.3 |
| 20260507004633 | 50 | 261 | 3.0 | 8.0 | 0.00 | 0.00 | 0.28 | 72 | 1018.3 |
| 20260507004133 | 50 | 306 | 4.0 | 10.0 | 0.00 | 0.00 | 0.28 | 71 | 1018.3 |
| 20260507003634 | 51 | 80 | 4.0 | 6.0 | 0.00 | 0.00 | 0.28 | 72 | 1018.3 |
| 20260507003134 | 51 | 305 | 3.0 | 6.0 | 0.00 | 0.00 | 0.28 | 70 | 1018.3 |
| 20260507002634 | 51 | 353 | 1.0 | 7.0 | 0.00 | 0.00 | 0.28 | 73 | 1018.3 |
| 20260507002136 | 50 | 321 | 2.0 | 7.0 | 0.00 | 0.00 | 0.28 | 72 | 1018.3 |
| 20260507001634 | 50 | 344 | 2.0 | 8.0 | 0.00 | 0.00 | 0.28 | 72 | 1018.3 |
| 20260507001135 | 50 | 98 | 2.0 | 8.0 | 0.00 | 0.00 | 0.28 | 73 | 1018.3 |
| 20260507000634 | 50 | 191 | 6.0 | 9.0 | 0.00 | 0.00 | 0.28 | 73 | 1018.3 |
| 20260507000133 | 50 | 310 | 3.0 | 8.0 | 0.00 | 0.00 | 0.28 | 75 | 1018.3 |
| 20260506235633 | 49 | 59 | 5.0 | 8.0 | 0.00 | 0.00 | 0.28 | 74 | 1018.3 |
| 20260506235133 | 49 | 291 | 3.0 | 8.0 | 0.00 | 0.00 | 0.28 | 77 | 1018.3 |
| 20260506234633 | 49 | 295 | 5.0 | 8.0 | 0.00 | 0.00 | 0.28 | 77 | 1018.3 |
| 20260506234134 | 49 | 331 | 4.0 | 6.0 | 0.00 | 0.00 | 0.28 | 78 | 1018.3 |
| 20260506233633 | 48 | 47 | 4.0 | 7.0 | 0.00 | 0.00 | 0.28 | 78 | 1018.3 |
| 20260506233133 | 48 | 276 | 4.0 | 9.0 | 0.00 | 0.00 | 0.28 | 79 | 1018.3 |
| 20260506232633 | 48 | 317 | 6.0 | 13.0 | 0.00 | 0.00 | 0.28 | 78 | 1018.3 |
| 20260506232133 | 48 | 281 | 8.0 | 14.0 | 0.00 | 0.00 | 0.28 | 75 | 1018.3 |
| 20260506231634 | 49 | 300 | 9.0 | 14.0 | 0.00 | 0.00 | 0.28 | 73 | 1018.3 |
| 20260506231133 | 50 | 284 | 8.0 | 11.0 | 0.00 | 0.00 | 0.28 | 71 | 1018.3 |
| 20260506230634 | 52 | 294 | 6.0 | 11.0 | 0.00 | 0.00 | 0.28 | 67 | 1018.3 |
| 20260506230134 | 54 | 334 | 3.0 | 5.0 | 0.00 | 0.00 | 0.28 | 59 | 1018.3 |
| 20260506225633 | 54 | 291 | 4.0 | 6.0 | 0.00 | 0.00 | 0.28 | 57 | 1017.9 |
| 20260506225133 | 55 | 280 | 1.0 | 4.0 | 0.00 | 0.00 | 0.28 | 58 | 1017.9 |
| 20260506224634 | 55 | 239 | 2.0 | 4.0 | 0.00 | 0.00 | 0.28 | 57 | 1017.9 |
| 20260506224133 | 55 | 4 | 1.0 | 6.0 | 0.00 | 0.00 | 0.28 | 56 | 1017.9 |
| 20260506223633 | 55 | 329 | 3.0 | 6.0 | 0.00 | 0.00 | 0.28 | 56 | 1017.9 |
| 20260506223134 | 55 | 295 | 3.0 | 5.0 | 0.00 | 0.00 | 0.28 | 57 | 1017.9 |
| 20260506222634 | 55 | 60 | 1.0 | 3.0 | 0.00 | 0.00 | 0.28 | 60 | 1017.9 |
| 20260506222133 | 54 | 167 | 2.0 | 5.0 | 0.00 | 0.00 | 0.28 | 62 | 1017.9 |
| 20260506221634 | 54 | 281 | 3.0 | 5.0 | 0.00 | 0.00 | 0.28 | 66 | 1018.3 |
| 20260506221133 | 54 | 323 | 3.0 | 4.0 | 0.00 | 0.00 | 0.28 | 60 | 1018.3 |
| 20260506220636 | 54 | 110 | 1.0 | 3.0 | 0.00 | 0.00 | 0.28 | 62 | 1018.3 |
| 20260506220133 | 54 | 12 | 1.0 | 2.0 | 0.00 | 0.00 | 0.28 | 60 | 1018.3 |
| 20260506215633 | 54 | 261 | 2.0 | 4.0 | 0.00 | 0.00 | 0.28 | 61 | 1018.3 |
| 20260506215134 | 55 | 61 | 0.0 | 3.0 | 0.00 | 0.00 | 0.28 | 59 | 1018.3 |
| 20260506214636 | 54 | 168 | 1.0 | 3.0 | 0.00 | 0.00 | 0.28 | 57 | 1018.3 |
| 20260506214136 | 54 | 182 | 2.0 | 5.0 | 0.00 | 0.00 | 0.28 | 61 | 1018.3 |
| 20260506213633 | 53 | 104 | 3.0 | 6.0 | 0.00 | 0.00 | 0.28 | 60 | 1018.3 |
| 20260506213133 | 54 | 279 | 2.0 | 6.0 | 0.00 | 0.00 | 0.28 | 59 | 1018.6 |
| 20260506212634 | 54 | 318 | 3.0 | 6.0 | 0.00 | 0.00 | 0.28 | 58 | 1018.6 |
| 20260506212133 | 54 | 298 | 1.0 | 5.0 | 0.00 | 0.00 | 0.28 | 61 | 1018.6 |
| 20260506211635 | 54 | 148 | 1.0 | 5.0 | 0.00 | 0.00 | 0.28 | 61 | 1018.6 |
| 20260506211133 | 53 | 269 | 3.0 | 8.0 | 0.00 | 0.00 | 0.28 | 60 | 1018.6 |
| 20260506210633 | 53 | 289 | 3.0 | 7.0 | 0.00 | 0.00 | 0.28 | 63 | 1018.6 |
| 20260506210134 | 53 | 339 | 5.0 | 6.0 | 0.00 | 0.00 | 0.28 | 63 | 1018.6 |
| 20260506205634 | 53 | 10 | 2.0 | 6.0 | 0.00 | 0.00 | 0.28 | 62 | 1019.0 |
| 20260506205134 | 53 | 257 | 3.0 | 6.0 | 0.00 | 0.00 | 0.28 | 62 | 1019.0 |
| 20260506204633 | 54 | 149 | 3.0 | 6.0 | 0.00 | 0.00 | 0.28 | 58 | 1019.0 |
| 20260506203647 | 55 | 43 | 2.0 | 3.0 | 0.00 | 0.00 | 0.28 | 59 | 1019.0 |
| 20260506203135 | 55 | 188 | 1.0 | 6.0 | 0.00 | 0.00 | 0.28 | 58 | 1019.0 |
| 20260506202633 | 55 | 297 | 2.0 | 3.0 | 0.00 | 0.00 | 0.28 | 60 | 1019.0 |
| 20260506202135 | 55 | 353 | 2.0 | 4.0 | 0.00 | 0.00 | 0.28 | 59 | 1019.0 |
| 20260506201637 | 55 | 177 | 2.0 | 4.0 | 0.00 | 0.00 | 0.28 | 59 | 1019.0 |
| 20260506201133 | 55 | 112 | 1.0 | 3.0 | 0.00 | 0.00 | 0.28 | 60 | 1019.0 |
| 20260506200633 | 56 | 147 | 1.0 | 8.0 | 0.00 | 0.00 | 0.28 | 60 | 1019.0 |
| 20260506200134 | 55 | 181 | 6.0 | 8.0 | 0.00 | 0.00 | 0.28 | 59 | 1019.0 |
| 20260506195634 | 55 | 154 | 4.0 | 6.0 | 0.00 | 0.00 | 0.28 | 62 | 1019.0 |
| 20260506195134 | 55 | 96 | 2.0 | 6.0 | 0.00 | 0.00 | 0.28 | 62 | 1019.3 |
| 20260506194633 | 55 | 155 | 3.0 | 6.0 | 0.00 | 0.00 | 0.28 | 62 | 1019.3 |
| 20260506194134 | 55 | 138 | 2.0 | 7.0 | 0.00 | 0.00 | 0.28 | 64 | 1019.3 |
| 20260506193635 | 54 | 242 | 3.0 | 8.0 | 0.00 | 0.00 | 0.28 | 62 | 1019.3 |
| 20260506193133 | 53 | 109 | 3.0 | 5.0 | 0.00 | 0.00 | 0.28 | 67 | 1019.3 |
| 20260506192634 | 52 | 196 | 4.0 | 5.0 | 0.00 | 0.00 | 0.28 | 66 | 1019.3 |
| 20260506192134 | 52 | 103 | 4.0 | 7.0 | 0.00 | 0.00 | 0.28 | 68 | 1019.3 |
| 20260506191633 | 52 | 139 | 4.0 | 6.0 | 0.00 | 0.00 | 0.28 | 70 | 1019.3 |
| 20260506191135 | 52 | 125 | 3.0 | 6.0 | 0.00 | 0.00 | 0.28 | 68 | 1019.3 |
| 20260506190633 | 51 | 187 | 1.0 | 5.0 | 0.00 | 0.00 | 0.28 | 71 | 1019.3 |
| 20260506190136 | 51 | 190 | 3.0 | 4.0 | 0.00 | 0.00 | 0.28 | 71 | 1019.6 |
| 20260506185148 | 51 | 67 | 2.0 | 4.0 | 0.00 | 0.00 | 0.28 | 73 | 1019.6 |
| 20260506184643 | 50 | 104 | 2.0 | 4.0 | 0.00 | 0.00 | 0.28 | 73 | 1019.6 |
| 20260506184134 | 50 | 150 | 2.0 | 4.0 | 0.00 | 0.00 | 0.28 | 75 | 1019.6 |
| 20260506183633 | 50 | 80 | 3.0 | 4.0 | 0.00 | 0.00 | 0.28 | 73 | 1019.6 |
| 20260506183133 | 49 | 161 | 2.0 | 4.0 | 0.00 | 0.00 | 0.28 | 76 | 1020.0 |
| 20260506182636 | 49 | 148 | 2.0 | 5.0 | 0.00 | 0.00 | 0.28 | 77 | 1020.0 |
| 20260506182135 | 49 | 127 | 2.0 | 4.0 | 0.00 | 0.00 | 0.28 | 78 | 1020.0 |
| 20260506181635 | 48 | 151 | 1.0 | 4.0 | 0.00 | 0.00 | 0.28 | 81 | 1020.0 |
| 20260506181134 | 48 | 96 | 2.0 | 4.0 | 0.00 | 0.00 | 0.28 | 79 | 1020.0 |
| 20260506180633 | 48 | 138 | 2.0 | 3.0 | 0.00 | 0.00 | 0.28 | 80 | 1020.0 |
| 20260506180135 | 48 | 103 | 1.0 | 4.0 | 0.00 | 0.00 | 0.28 | 80 | 1020.0 |
| 20260506175633 | 47 | 102 | 0.0 | 3.0 | 0.00 | 0.00 | 0.28 | 82 | 1020.0 |
| 20260506175134 | 47 | 100 | 0.0 | 6.0 | 0.00 | 0.00 | 0.28 | 81 | 1020.0 |
| 20260506174634 | 47 | 121 | 2.0 | 6.0 | 0.00 | 0.00 | 0.28 | 79 | 1020.0 |
| 20260506174136 | 47 | 121 | 2.0 | 4.0 | 0.00 | 0.00 | 0.28 | 79 | 1020.0 |
| 20260506173633 | 48 | 123 | 2.0 | 6.0 | 0.00 | 0.00 | 0.28 | 79 | 1020.0 |
| 20260506173136 | 49 | 135 | 2.0 | 3.0 | 0.00 | 0.00 | 0.28 | 76 | 1020.0 |
| 20260506172634 | 49 | 88 | 2.0 | 5.0 | 0.00 | 0.00 | 0.28 | 77 | 1020.0 |
| 20260506172134 | 50 | 92 | 1.0 | 5.0 | 0.00 | 0.00 | 0.28 | 75 | 1020.0 |
| 20260506171634 | 51 | 139 | 1.0 | 5.0 | 0.00 | 0.00 | 0.28 | 76 | 1020.0 |
| 20260506171133 | 51 | 108 | 2.0 | 4.0 | 0.00 | 0.00 | 0.28 | 76 | 1019.6 |
| 20260506170634 | 51 | 110 | 1.0 | 4.0 | 0.00 | 0.00 | 0.28 | 77 | 1019.6 |
| 20260506170134 | 51 | 178 | 2.0 | 3.0 | 0.00 | 0.00 | 0.28 | 76 | 1019.6 |
| 20260506165634 | 50 | 84 | 2.0 | 4.0 | 0.00 | 0.00 | 0.28 | 77 | 1019.6 |
| 20260506165134 | 49 | 111 | 1.0 | 4.0 | 0.00 | 0.00 | 0.28 | 77 | 1019.6 |
| 20260506164634 | 49 | 76 | 1.0 | 5.0 | 0.00 | 0.00 | 0.28 | 80 | 1019.6 |
| 20260506164134 | 49 | 156 | 2.0 | 5.0 | 0.00 | 0.00 | 0.28 | 79 | 1019.6 |
| 20260506163634 | 49 | 86 | 1.0 | 8.0 | 0.00 | 0.00 | 0.28 | 77 | 1019.6 |
| 20260506163133 | 48 | 121 | 4.0 | 8.0 | 0.00 | 0.00 | 0.28 | 76 | 1019.6 |
| 20260506162634 | 49 | 141 | 1.0 | 5.0 | 0.00 | 0.00 | 0.28 | 81 | 1019.6 |
| 20260506162134 | 48 | 101 | 1.0 | 4.0 | 0.00 | 0.00 | 0.28 | 82 | 1019.6 |
| 20260506161633 | 47 | 146 | 1.0 | 4.0 | 0.00 | 0.00 | 0.28 | 83 | 1019.6 |
| 20260506161134 | 47 | 175 | 2.0 | 4.0 | 0.00 | 0.00 | 0.28 | 80 | 1019.6 |
| 20260506160633 | 47 | 86 | 2.0 | 4.0 | 0.00 | 0.00 | 0.28 | 81 | 1019.6 |
| 20260506160133 | 48 | 87 | 1.0 | 3.0 | 0.00 | 0.00 | 0.28 | 80 | 1019.6 |
| 20260506155633 | 47 | 278 | 1.0 | 3.0 | 0.00 | 0.00 | 0.28 | 81 | 1019.6 |
| 20260506155133 | 47 | 100 | 1.0 | 3.0 | 0.01 | 0.00 | 0.28 | 82 | 1019.6 |
| 20260506154159 | 46 | 297 | 2.0 | 4.0 | 0.01 | 0.00 | 0.28 | 86 | 1019.6 |
| 20260506153636 | 45 | 26 | 1.0 | 3.0 | 0.01 | 0.00 | 0.28 | 88 | 1019.6 |
| 20260506153134 | 44 | 306 | 2.0 | 3.0 | 0.01 | 0.00 | 0.28 | 90 | 1019.6 |
| 20260506152634 | 44 | 80 | 2.0 | 3.0 | 0.01 | 0.00 | 0.28 | 91 | 1019.6 |
| 20260506152135 | 43 | 228 | 2.0 | 3.0 | 0.01 | 0.00 | 0.28 | 92 | 1019.6 |
| 20260506151634 | 43 | 75 | 2.0 | 3.0 | 0.01 | 0.00 | 0.28 | 93 | 1019.6 |
| 20260506151134 | 43 | 70 | 1.0 | 4.0 | 0.01 | 0.00 | 0.27 | 93 | 1019.6 |
| 20260506150634 | 43 | 284 | 1.0 | 4.0 | 0.01 | 0.00 | 0.27 | 93 | 1019.6 |
| 20260506150134 | 43 | 321 | 3.0 | 4.0 | 0.01 | 0.00 | 0.26 | 93 | 1019.6 |